sat.trackr.live / text

‹ back to catalog

STARLINK-5811

NORAD 55787 · 2023-028AY

PAYLOAD ACTIVE UNKNOWN

§ Identity

Operator
Country
US
Launch date
2023-03-03
Launch site
AFWTR
Launch vehicle
Mass (kg)
RCS (m²)

Purposes: comms

External: N2YO · Heavens-Above · Gunter

§ Orbital elements

Epoch: 2026-09-20T22:00:03.000096Z

Period
95.64 min
Inclination
70.0009°
Eccentricity
0.0004143
Mean motion
15.05612154 rev/d
Perigee alt
546.8 km
Apogee alt
552.5 km
Semi-major
6,927.8 km
B*
5.8263e-3
RAAN
72.2852°
Arg perigee
245.2054°
Mean anomaly
265.4219°
Rev number
572

§ Raw data

STARLINK-58111 55787U 23028AY  26263.91670139  .00085143  00000+0  58263-2 0  99982 55787  70.0009  72.2852 0004143 245.2054 265.4219 15.05612154  5723

JSON: /api/v1/satellites/55787 · /tle

For live sub-satellite position, see the globe view (requires WebGL).

§ Visibility from observer

Set your observer location to see the next 7 days of passes ≥ 10°. The values pass through the URL so the page stays shareable.

No JS? Fill the form by hand. The geolocation button needs JavaScript.